PSLV R/B, 51659

Orbit data source: Space-Track

PSLV R/B, 51659 is space debris in SSO originally from a launch on Mon, 14 Feb 2022 UTC launched from the Sirharikota (SRI). Debris objects in space refer to the collection of defunct objects orbiting the Earth. Examples of debris include non-operational satellites, rocket bodies, and fragments generated from explosions, collisions, or faulty payload assembly.

Loading next visibility...
Identifier
51659, 2022-013D
Orbit
SSO
Country
Flag of ININ / IND
Related business
Manufacturer
VSSC/LPSC
Mission
Spacecraft
Bus & Motor
PS-4DL, Unknown motor
Mass
920 kg wet, 920 kg dry
Launch date (UTC)
2022-02-14 (4 years ago)
Launch vehicle
Unknown
Launch site
Sirharikota (SRI)
Object type
Payload
Rocket body
Debris
Shape & HBR
Cyl + Cyl + 2 Nozzle, 1.5 m
Radar Cross Section
3.727 m², Large (>1 m²)

Expand to show TLE details & history
Last TLE update: 2 days ago

TLE from 2 days ago
0 PSLV R/B
1 51659U 22013D   26171.43893419  .00073647  00000-0  46712-3 0  9992
2 51659  97.4331 230.7669 0008837 105.3769 254.8474 15.76255826243218
Epoch: 2026-06-20T10:32Z
TLE epoch observation values (Epoch: 2026-06-20T10:32:03.914Z)
Latitude
0.00007°
Longitude
164.09704°
Altitude
345.783 km
Speed
7.7 km/s
True Right ascension
15h 23m 04s
True Declination
0° 00' 00"
Sunlit
Object was in full shadow at epoch
Visualization orbit readout
Latitude
Unknown
Longitude
Unknown
Altitude
Unknown
Speed
Unknown
Apparent Right ascension
Unknown
Apparent Declination
Unknown
Sunlit
N/A
Visualization observer readout
Local Sidereal Time
21:27:57
Azimuth
Unknown
Elevation
Unknown
Doppler factor
Unknown
Orbital elements
Apogee altitude
343.887 km
Perigee altitude
332.017 km
Semi-major axis
6,716.089 km
Eccentricity
0.00088
Inclination
97.4331°
RAAN
230.7669°
Arg. of periapsis
105.3769°
True anomaly
254.74968°
Mean anomaly
254.8474°
Eccentric anomaly
254.79854°
Mean motion
3.94338 °/min
Orbital period
91.29 mins
BSTAR
0.00046712
Loading maneuver chart data...
Computing Atmospheric mass density...
Loading historical data...
Loading historical data...
Loading historical data...
Loading historical data...
Loading historical data...
Loading historical data...
Loading historical data...
Other satellites on launch #13 in the year 2022 (2022-02-14 UTC)

Documentation

Showing up to 5 results
|